INTELSAT 33E DEB, 61988

Orbit data source: Space-Track

INTELSAT 33E DEB, 61988 is space debris in GEO originally from a launch on Wed, 24 Aug 2016 UTC launched from the French Guiana (FRGUI). Debris objects in space refer to the collection of defunct objects orbiting the Earth. Examples of debris include non-operational satellites, rocket bodies, and fragments generated from explosions, collisions, or faulty payload assembly.

Loading next visibility...
INTELSAT 33E DEB details
Identifier
61988, 2016-053E
Orbit
GEO
Last TLE update20 hours ago
Origin
Flag of USIntelsat SA (US) (US / ITSO)
ManufacturerBoeing/ES
MissionSpacecraft
Bus & MotorUnknown
MassUnknown
Launch date (UTC)
2016-08-24 (8 years ago)
Launch vehicleUnknown
Launch site
French Guiana (FRGUI)
Object type
Payload
Rocket body
Debris
Shape & HBRUnknown
Radar Cross SectionRCS unknown

Expand to show TLE details & history

TLE from 20 hours ago
0 INTELSAT 33E DEB
1 61988U 16053E   25043.93472642  .00000052  00000-0  00000-0 0  9995
2 61988   0.5199 125.1540 0046656 108.8048 125.5717  0.99835376  1157
Epoch: 2025-02-12T22:26Z
Definitive object data (Epoch: 2025-02-12T22:26:00.362Z)
Latitude-0.44967°
Longitude-119.72071°
Altitude36,023.853 km
Speed3.062 km/s
True Right ascension23h 59m 59s
True Declination0° 26' 57"
Sunlit
Object was in daylight at TLE epoch
Visualization TLE readout
Latitude0.03013°
Longitude-178.19308°
Altitude35,833.251 km
Speed3.076 km/s
Apparent Right ascension19h 57m 55s
Apparent Declination-6° 09' 30"
Sunlit
Object is in daylight
Visualization observer readout
Local Sidereal Time21:09:32
Azimuth203.913° SW
Elevation41.056°
Doppler factor1
Orbital elements
Apogee altitude36,107.751 km
Perigee altitude35,713.147 km
Semi-major axis42,288.586 km
Eccentricity0.0046656
Inclination0.5199°
RAAN125.154°
Arg. of periapsis108.8048°
True anomaly126.00509°
Mean anomaly125.5717°
Eccentric anomaly125.78854°
Mean motion0.24958 °/min
BSTARUnknown
Orbital period1442.43 mins
Loading historical data...
61988 neighbors
Authenticating...
Loading maneuver chart data...
Loading historical data...
Loading historical data...
Loading historical data...
Loading historical data...
Loading historical data...
Loading historical data...
Loading historical data...

INTELSAT 33E DEB Visibility forecast

Observer location: undefined°, undefined

Span
Click to sort rows by Start time (UTC) header in descending order
Start Az.
Max El. time (UTC)
Max El. Az.
Max El.
End time (UTC)
End Az.
1440 mins2025-02-13 18:33:50.387Z203.904° SW2025-02-13 18:33:50.387Z203.904° SW33.289°2025-02-14 18:33:50.387Z206.106° SW
|